EW5676 Weather Reports


Display with metric or nautical units.
time (UTC)temp
F
wind
direction
speed
MPH
gust
MPH
rain 1hr
in
rain 24hr
in
rain mn
in
humidity
%
barometer
mb
20260510053910 53 156 0.0 1.0 0.00 0.00 0.00 96 1017.6
20260510053009 53 160 1.0 2.0 0.00 0.00 0.00 96 1017.6
20260510052109 53 134 1.0 3.0 0.00 0.00 0.00 95 1017.6
20260510051209 53 185 1.0 3.0 0.00 0.00 0.00 95 1017.6
20260510050310 53 208 2.0 5.0 0.00 0.00 0.00 95 1017.8
20260510045409 53 193 2.0 5.0 0.00 0.00 0.00 95 1017.9
20260510044509 53 205 1.0 3.0 0.00 0.00 0.00 95 1017.8
20260510043609 53 203 1.0 4.0 0.00 0.00 0.00 95 1017.7
20260510042709 53 151 2.0 4.0 0.00 0.00 0.00 95 1017.7
20260510040909 53 164 1.0 4.0 0.00 0.00 0.00 95 1017.5
20260510040009 53 211 1.0 4.0 0.00 0.00 0.00 95 1017.3
20260510035109 53 207 1.0 3.0 0.00 0.00 0.00 95 1017.3
20260510034209 53 197 1.0 4.0 0.00 0.00 0.00 95 1017.4
20260510033309 53 144 1.0 3.0 0.00 0.00 0.00 95 1017.3
20260510032408 53 175 2.0 4.0 0.00 0.00 0.00 95 1017.3
20260510031509 53 188 2.0 5.0 0.00 0.00 0.00 95 1017.5
20260510030609 53 144 2.0 5.0 0.00 0.00 0.00 95 1017.5
20260510025708 53 207 1.0 5.0 0.00 0.00 0.00 95 1017.4
20260510024808 53 199 0.0 1.0 0.00 0.00 0.00 95 1017.5
20260510023008 53 155 0.0 2.0 0.00 0.00 0.00 95 1017.4
20260510022108 53 147 2.0 4.0 0.00 0.00 0.00 95 1017.4
20260510021208 53 143 2.0 5.0 0.00 0.00 0.00 95 1017.3
20260510020308 53 155 1.0 4.0 0.00 0.00 0.00 95 1017.4
20260510015408 53 169 2.0 4.0 0.00 0.00 0.00 95 1017.4
20260510014508 53 150 1.0 3.0 0.00 0.00 0.00 95 1017.3
20260510013608 52 130 0.0 4.0 0.00 0.00 0.00 95 1017.2
20260510012708 52 0 0.0 0.0 0.00 0.00 0.00 94 1017.3
20260510011809 52 0 0.0 0.0 0.00 0.00 0.00 94 1017.2
20260510010908 53 0 0.0 0.0 0.00 0.00 0.00 94 1017.2
20260510010008 53 0 0.0 0.0 0.00 0.00 0.00 94 1017.3
20260510005110 53 0 0.0 0.0 0.00 0.00 0.00 94 1017.0
20260510004209 53 163 1.0 3.0 0.00 0.00 0.00 94 1017.0
20260510003309 53 147 1.0 3.0 0.00 0.00 0.00 94 1016.8
20260510002408 53 135 2.0 4.0 0.00 0.00 0.00 94 1016.7
20260510001508 53 128 2.0 4.0 0.00 0.00 0.00 94 1016.7
20260510000608 53 138 1.0 3.0 0.00 0.00 0.00 94 1016.7
20260509235709 53 87 1.0 5.0 0.00 0.00 0.00 94 1016.8
20260509234809 53 126 3.0 7.0 0.00 0.00 0.00 94 1016.7
20260509233908 53 168 2.0 6.0 0.00 0.00 0.00 94 1017.0
20260509233008 53 131 3.0 6.0 0.00 0.00 0.00 94 1016.8
20260509232108 53 258 2.0 4.0 0.00 0.00 0.00 93 1017.1
20260509231208 53 289 3.0 9.0 0.00 0.00 0.00 93 1017.5
20260509230307 53 282 2.0 7.0 0.00 0.00 0.00 93 1017.7
20260509224508 53 269 1.0 3.0 0.00 0.00 0.00 93 1017.2
20260509223607 53 206 1.0 3.0 0.00 0.00 0.00 93 1017.3
20260509221808 53 109 2.0 3.0 0.00 0.00 0.00 93 1017.3
20260509220907 53 178 1.0 4.0 0.00 0.00 0.00 92 1017.5
20260509220007 53 212 2.0 5.0 0.00 0.00 0.00 92 1017.9
20260509215107 53 209 1.0 5.0 0.00 0.00 0.00 92 1017.9
20260509214207 53 207 2.0 7.0 0.00 0.00 0.00 92 1017.8
20260509212408 54 229 3.0 5.0 0.00 0.00 0.00 91 1018.0
20260509211508 54 217 3.0 9.0 0.00 0.00 0.00 91 1017.9
20260509210607 54 205 4.0 9.0 0.00 0.00 0.00 91 1017.6
20260509205708 54 232 3.0 7.0 0.00 0.00 0.00 91 1017.8
20260509203907 55 237 4.0 9.0 0.00 0.00 0.00 92 1017.9
20260509203007 55 250 2.0 5.0 0.00 0.00 0.00 93 1017.8
20260509202107 55 237 3.0 10.0 0.00 0.00 0.00 93 1017.9
20260509201207 55 234 4.0 12.0 0.00 0.00 0.00 92 1018.2
20260509200307 55 223 5.0 20.0 0.00 0.00 0.00 92 1018.2
20260509194507 55 216 4.0 11.0 0.00 0.00 0.00 92 1018.2
20260509193607 55 237 4.0 11.0 0.00 0.00 0.00 92 1018.2
20260509192707 55 224 3.0 9.0 0.00 0.00 0.00 92 1018.3
20260509191807 55 242 4.0 11.0 0.00 0.00 0.00 91 1018.4
20260509190908 55 231 5.0 11.0 0.00 0.00 0.00 91 1018.4
20260509190008 55 229 7.0 15.0 0.00 0.00 0.00 91 1018.3
20260509184207 56 233 5.0 14.0 0.00 0.00 0.00 89 1018.3
20260509183307 57 225 5.0 11.0 0.00 0.00 0.00 88 1018.3
20260509182407 57 229 7.0 17.0 0.00 0.00 0.00 87 1018.2
20260509181507 59 237 8.0 18.0 0.00 0.00 0.00 83 1018.2
20260509180607 60 234 8.0 19.0 0.00 0.00 0.00 79 1017.8
20260509175707 61 222 9.0 20.0 0.00 0.00 0.00 78 1017.7
20260509174806 61 221 11.0 24.0 0.00 0.00 0.00 77 1017.7
20260509173906 62 198 8.0 19.0 0.00 0.00 0.00 77 1017.5
20260509173007 62 203 8.0 18.0 0.00 0.00 0.00 76 1017.5
20260509172107 62 211 7.0 21.0 0.00 0.00 0.00 75 1017.6
20260509171206 61 218 8.0 19.0 0.00 0.00 0.00 76 1017.6
20260509170306 61 213 6.0 19.0 0.00 0.00 0.00 76 1017.7
20260509165406 61 217 7.0 16.0 0.00 0.00 0.00 77 1017.9
20260509164506 60 223 8.0 16.0 0.00 0.00 0.00 77 1018.2
20260509163606 60 197 6.0 13.0 0.00 0.00 0.00 77 1018.2
20260509162706 61 188 7.0 13.0 0.00 0.00 0.00 77 1018.3
20260509161807 61 188 7.0 13.0 0.00 0.00 0.00 76 1018.3
20260509160006 61 189 7.0 14.0 0.00 0.00 0.00 76 1018.5
20260509155107 61 201 7.0 15.0 0.00 0.00 0.00 76 1018.7
20260509154206 60 203 7.0 15.0 0.00 0.00 0.00 77 1018.6
20260509153306 60 186 8.0 14.0 0.00 0.00 0.00 78 1018.8
20260509152406 60 191 5.0 13.0 0.00 0.00 0.00 79 1018.8
20260509151507 59 198 7.0 15.0 0.00 0.00 0.00 79 1018.9
20260509150606 59 191 6.0 13.0 0.00 0.00 0.00 79 1019.0
20260509145706 59 179 6.0 13.0 0.00 0.00 0.00 78 1019.0
20260509144806 60 165 6.0 10.0 0.00 0.00 0.00 78 1018.9
20260509143906 59 172 5.0 11.0 0.00 0.00 0.00 77 1019.0
20260509143006 59 153 6.0 12.0 0.00 0.00 0.00 77 1019.0
20260509142106 59 169 4.0 12.0 0.00 0.00 0.00 76 1019.0
20260509141206 59 159 5.0 10.0 0.00 0.00 0.00 76 1018.9
20260509140306 59 165 5.0 10.0 0.00 0.00 0.00 76 1018.9
20260509135408 58 207 4.0 9.0 0.00 0.00 0.00 76 1019.1
20260509134506 58 215 5.0 9.0 0.00 0.00 0.00 77 1019.2
20260509133605 58 197 3.0 9.0 0.00 0.00 0.00 78 1019.1
20260509131806 57 185 3.0 7.0 0.00 0.00 0.00 77 1019.3
20260509130906 57 197 4.0 11.0 0.00 0.00 0.00 77 1019.3
20260509130006 58 191 5.0 12.0 0.00 0.00 0.00 75 1019.3
20260509125105 58 193 4.0 9.0 0.00 0.00 0.00 77 1019.3
20260509124206 57 187 4.0 10.0 0.00 0.00 0.00 78 1019.4
20260509123305 56 175 3.0 8.0 0.00 0.00 0.00 81 1019.4
20260509122405 56 197 3.0 8.0 0.00 0.00 0.00 82 1019.4
20260509120605 54 182 3.0 6.0 0.00 0.00 0.00 84 1019.5
20260509115706 54 168 3.0 6.0 0.00 0.00 0.00 85 1019.4
20260509114805 54 166 3.0 8.0 0.00 0.00 0.00 85 1019.7
20260509113905 53 167 2.0 5.0 0.00 0.00 0.00 86 1019.6
20260509112105 53 136 1.0 4.0 0.00 0.00 0.00 89 1019.7
20260509111205 52 119 2.0 3.0 0.00 0.00 0.00 90 1019.6
20260509110305 52 106 2.0 3.0 0.00 0.00 0.00 90 1019.5
20260509104505 51 123 0.0 2.0 0.00 0.00 0.00 91 1019.3
20260509103606 51 93 0.0 2.0 0.00 0.00 0.00 91 1019.2
20260509102705 51 0 0.0 0.0 0.00 0.00 0.00 91 1019.1
20260509101807 51 92 1.0 2.0 0.00 0.00 0.00 91 1019.1
20260509100905 51 109 1.0 4.0 0.00 0.00 0.00 91 1019.1
20260509100005 51 90 1.0 3.0 0.00 0.00 0.00 91 1019.1
20260509095105 51 0 0.0 0.0 0.00 0.00 0.00 91 1019.1
20260509094207 51 0 0.0 0.0 0.00 0.00 0.00 91 1019.1
20260509093305 51 0 0.0 0.0 0.00 0.00 0.00 91 1019.1
20260509092406 51 114 1.0 3.0 0.00 0.00 0.00 90 1019.0
20260509091505 51 107 1.0 3.0 0.00 0.00 0.00 90 1018.9
20260509090605 51 73 2.0 3.0 0.00 0.00 0.00 90 1018.7
20260509085705 51 83 1.0 2.0 0.00 0.00 0.00 90 1018.9
20260509084804 51 89 1.0 2.0 0.00 0.00 0.00 90 1019.1
20260509083905 51 118 1.0 3.0 0.00 0.00 0.00 90 1019.2
20260509083005 51 141 1.0 3.0 0.00 0.00 0.00 90 1019.2
20260509082104 51 139 1.0 2.0 0.00 0.00 0.00 90 1019.2
20260509081205 51 155 2.0 4.0 0.00 0.00 0.00 90 1019.4
20260509080305 51 126 2.0 3.0 0.00 0.00 0.00 90 1019.1
20260509075405 51 90 1.0 2.0 0.00 0.00 0.00 89 1019.0
20260509074504 51 93 2.0 3.0 0.00 0.00 0.00 89 1019.0
20260509073605 51 85 2.0 3.0 0.00 0.00 0.00 89 1018.9
20260509072704 51 91 2.0 3.0 0.00 0.00 0.00 89 1018.9
20260509071805 51 104 1.0 3.0 0.00 0.00 0.00 89 1018.9
20260509070904 51 0 0.0 0.0 0.00 0.00 0.00 88 1019.0
20260509070004 51 0 0.0 0.0 0.00 0.00 0.00 88 1019.1
20260509065105 51 0 0.0 0.0 0.00 0.00 0.00 87 1019.3
20260509064204 51 145 1.0 3.0 0.00 0.00 0.00 87 1019.4
20260509063304 51 159 1.0 3.0 0.00 0.00 0.00 86 1019.7
20260509062404 51 162 1.0 3.0 0.00 0.00 0.00 86 1019.7
20260509060605 51 0 0.0 0.0 0.00 0.00 0.00 86 1019.6
20260509055704 50 0 0.0 0.0 0.00 0.00 0.00 87 1019.7
20260509054804 50 0 0.0 0.0 0.00 0.00 0.00 87 1019.7